| time (UTC) | temp F | wind direction | speed MPH | gust MPH | rain 1hr in | rain 24hr in | rain mn in | humidity % | barometer mb |
| 20260506134206 | 51 | 73 | 7.0 | 10.0 | 0.00 | 5.55 | 3.33 | 98 | 1005.6 |
| 20260506133704 | 51 | 43 | 4.0 | 10.0 | 0.00 | 5.55 | 3.33 | 98 | 1005.6 |
| 20260506132704 | 51 | 45 | 5.0 | 10.0 | 0.00 | 5.55 | 3.33 | 98 | 1005.6 |
| 20260506132206 | 51 | 23 | 4.0 | 10.0 | 0.00 | 5.55 | 3.33 | 98 | 1005.6 |
| 20260506131706 | 51 | 38 | 9.0 | 10.0 | 0.00 | 5.55 | 3.33 | 98 | 1005.5 |
| 20260506130206 | 51 | 83 | 3.0 | 10.0 | 0.00 | 5.55 | 3.33 | 98 | 1005.6 |
| 20260506125704 | 51 | 65 | 3.0 | 10.0 | 0.00 | 5.55 | 3.33 | 98 | 1005.5 |
| 20260506125204 | 51 | 103 | 3.0 | 10.0 | 0.00 | 5.55 | 3.33 | 98 | 1005.5 |
| 20260506124706 | 51 | 33 | 7.0 | 9.0 | 0.00 | 5.55 | 3.33 | 98 | 1005.4 |
| 20260506124205 | 51 | 73 | 7.0 | 9.0 | 0.00 | 5.55 | 3.33 | 98 | 1005.5 |
| 20260506123704 | 51 | 25 | 6.0 | 9.0 | 0.00 | 5.55 | 3.33 | 98 | 1005.5 |
| 20260506123206 | 51 | 8 | 4.0 | 9.0 | 0.00 | 5.55 | 3.33 | 98 | 1005.6 |
| 20260506122705 | 51 | 53 | 7.0 | 9.0 | 0.00 | 5.55 | 3.33 | 98 | 1005.6 |
| 20260506122204 | 51 | 43 | 3.0 | 9.0 | 0.00 | 5.55 | 3.33 | 98 | 1005.5 |
| 20260506121705 | 51 | 23 | 2.0 | 9.0 | 0.00 | 5.55 | 3.33 | 98 | 1005.6 |
| 20260506121205 | 51 | 78 | 4.0 | 11.0 | 0.00 | 5.55 | 3.33 | 98 | 1005.5 |
| 20260506120706 | 51 | 43 | 2.0 | 11.0 | 0.00 | 5.55 | 3.33 | 98 | 1005.4 |
| 20260506115206 | 51 | 25 | 4.0 | 10.0 | 0.00 | 5.55 | 3.33 | 98 | 1005.4 |
| 20260506114704 | 51 | 83 | 3.0 | 10.0 | 0.00 | 5.55 | 3.33 | 98 | 1005.3 |
| 20260506114209 | 51 | 43 | 6.0 | 11.0 | 0.00 | 5.55 | 3.33 | 98 | 1005.3 |
| 20260506113706 | 50 | 358 | 4.0 | 11.0 | 0.00 | 5.55 | 3.33 | 98 | 1005.4 |
| 20260506113204 | 50 | 73 | 7.0 | 11.0 | 0.00 | 5.55 | 3.33 | 98 | 1005.4 |
| 20260506112707 | 50 | 13 | 3.0 | 11.0 | 0.00 | 5.55 | 3.33 | 98 | 1005.5 |
| 20260506112207 | 50 | 38 | 3.0 | 11.0 | 0.00 | 5.55 | 3.33 | 98 | 1005.4 |
| 20260506111704 | 50 | 53 | 2.0 | 10.0 | 0.00 | 5.55 | 3.33 | 98 | 1005.5 |
| 20260506111204 | 50 | 55 | 7.0 | 11.0 | 0.00 | 5.55 | 3.33 | 98 | 1005.5 |
| 20260506110705 | 50 | 53 | 7.0 | 11.0 | 0.00 | 5.55 | 3.33 | 99 | 1005.5 |
| 20260506110223 | 50 | 38 | 4.0 | 11.0 | 0.00 | 5.55 | 3.33 | 99 | 1005.4 |
| 20260506105704 | 50 | 65 | 10.0 | 11.0 | 1.11 | 5.55 | 3.33 | 99 | 1005.3 |
| 20260506105215 | 50 | 55 | 6.0 | 11.0 | 1.11 | 5.55 | 3.33 | 99 | 1005.3 |
| 20260506104705 | 49 | 65 | 8.0 | 11.0 | 1.11 | 5.55 | 3.33 | 99 | 1005.3 |
| 20260506104211 | 49 | 55 | 6.0 | 11.0 | 1.11 | 5.55 | 3.33 | 99 | 1005.4 |
| 20260506103205 | 49 | 38 | 6.0 | 11.0 | 1.11 | 5.55 | 3.33 | 99 | 1005.3 |
| 20260506102704 | 49 | 93 | 4.0 | 11.0 | 2.22 | 5.55 | 3.33 | 99 | 1005.4 |
| 20260506102211 | 49 | 18 | 5.0 | 11.0 | 2.22 | 5.55 | 3.33 | 99 | 1005.3 |
| 20260506101704 | 49 | 85 | 4.0 | 11.0 | 2.22 | 5.55 | 3.33 | 99 | 1005.3 |
| 20260506101204 | 49 | 45 | 7.0 | 11.0 | 2.22 | 5.55 | 3.33 | 99 | 1005.4 |
| 20260506100704 | 49 | 53 | 7.0 | 11.0 | 2.22 | 5.55 | 3.33 | 99 | 1005.4 |
| 20260506100231 | 49 | 13 | 6.0 | 11.0 | 2.22 | 5.55 | 3.33 | 99 | 1005.4 |
| 20260506095704 | 49 | 45 | 8.0 | 11.0 | 1.11 | 4.44 | 2.22 | 99 | 1005.3 |
| 20260506095206 | 49 | 53 | 4.0 | 11.0 | 1.11 | 4.44 | 2.22 | 99 | 1005.4 |
| 20260506094704 | 49 | 343 | 5.0 | 11.0 | 1.11 | 4.44 | 2.22 | 99 | 1005.3 |
| 20260506093705 | 49 | 33 | 7.0 | 10.0 | 1.11 | 4.44 | 2.22 | 99 | 1005.2 |
| 20260506093206 | 49 | 85 | 4.0 | 10.0 | 1.11 | 4.44 | 2.22 | 99 | 1005.2 |
| 20260506092704 | 49 | 43 | 5.0 | 10.0 | 0.00 | 3.33 | 1.11 | 99 | 1005.3 |
| 20260506092205 | 49 | 8 | 6.0 | 10.0 | 0.00 | 3.33 | 1.11 | 99 | 1005.2 |
| 20260506091706 | 48 | 25 | 8.0 | 10.0 | 0.00 | 3.33 | 1.11 | 99 | 1005.1 |
| 20260506091205 | 48 | 353 | 5.0 | 10.0 | 0.00 | 3.33 | 1.11 | 99 | 1005.1 |
| 20260506090704 | 48 | 0 | 3.0 | 10.0 | 0.00 | 3.33 | 1.11 | 99 | 1005.1 |
| 20260506090204 | 48 | 18 | 4.0 | 10.0 | 0.00 | 3.33 | 1.11 | 99 | 1005.1 |
| 20260506085706 | 48 | 38 | 8.0 | 10.0 | 0.00 | 3.33 | 1.11 | 99 | 1005.1 |
| 20260506085204 | 48 | 25 | 4.0 | 10.0 | 0.00 | 3.33 | 1.11 | 99 | 1005.1 |
| 20260506084704 | 48 | 113 | 6.0 | 10.0 | 0.00 | 3.33 | 1.11 | 99 | 1005.0 |
| 20260506083204 | 48 | 358 | 6.0 | 10.0 | 0.00 | 3.33 | 1.11 | 99 | 1005.0 |
| 20260506082706 | 48 | 0 | 6.0 | 10.0 | 0.00 | 3.33 | 1.11 | 99 | 1004.9 |
| 20260506082204 | 48 | 18 | 8.0 | 10.0 | 0.00 | 3.33 | 1.11 | 99 | 1004.9 |
| 20260506081704 | 48 | 38 | 4.0 | 10.0 | 0.00 | 3.33 | 1.11 | 99 | 1004.9 |
| 20260506081204 | 48 | 353 | 4.0 | 10.0 | 0.00 | 3.33 | 1.11 | 99 | 1004.8 |
| 20260506080705 | 48 | 18 | 7.0 | 10.0 | 0.00 | 3.33 | 1.11 | 99 | 1004.9 |
| 20260506080205 | 48 | 38 | 7.0 | 10.0 | 0.00 | 3.33 | 1.11 | 99 | 1004.8 |
| 20260506073206 | 48 | 8 | 4.0 | 11.0 | 0.00 | 3.33 | 1.11 | 99 | 1004.7 |
| 20260506072204 | 48 | 13 | 5.0 | 11.0 | 0.00 | 3.33 | 1.11 | 99 | 1004.7 |
| 20260506071705 | 48 | 73 | 2.0 | 11.0 | 0.00 | 3.33 | 1.11 | 99 | 1004.6 |
| 20260506071206 | 48 | 63 | 5.0 | 10.0 | 0.00 | 3.33 | 1.11 | 99 | 1004.6 |
| 20260506070705 | 48 | 63 | 6.0 | 10.0 | 0.00 | 3.33 | 1.11 | 99 | 1004.7 |
| 20260506070204 | 47 | 38 | 6.0 | 10.0 | 0.00 | 3.33 | 1.11 | 99 | 1004.6 |
| 20260506061705 | 47 | 25 | 6.0 | 9.0 | 0.00 | 3.33 | 1.11 | 99 | 1004.4 |
| 20260506061230 | 47 | 23 | 5.0 | 9.0 | 0.00 | 3.33 | 1.11 | 99 | 1004.3 |
| 20260506060704 | 47 | 33 | 5.0 | 9.0 | 0.00 | 3.33 | 1.11 | 99 | 1004.3 |
| 20260506060226 | 47 | 25 | 7.0 | 9.0 | 0.00 | 3.33 | 1.11 | 99 | 1004.3 |
| 20260506051205 | 47 | 38 | 4.0 | 9.0 | 0.00 | 3.33 | 1.11 | 99 | 1004.3 |
| 20260506050706 | 47 | 55 | 5.0 | 9.0 | 0.00 | 3.33 | 1.11 | 99 | 1004.3 |
| 20260506050205 | 48 | 8 | 5.0 | 9.0 | 0.00 | 4.44 | 1.11 | 99 | 1004.4 |
| 20260506044706 | 48 | 253 | 2.0 | 9.0 | 0.00 | 4.44 | 1.11 | 99 | 1004.5 |
| 20260506044205 | 48 | 38 | 4.0 | 9.0 | 0.00 | 4.44 | 1.11 | 99 | 1004.5 |
| 20260506043205 | 48 | 25 | 4.0 | 8.0 | 0.00 | 4.44 | 1.11 | 99 | 1004.4 |
| 20260506042710 | 48 | 38 | 4.0 | 8.0 | 0.00 | 4.44 | 1.11 | 99 | 1004.6 |
| 20260506042205 | 48 | 25 | 6.0 | 8.0 | 0.00 | 4.44 | 1.11 | 99 | 1004.4 |
| 20260506041705 | 48 | 33 | 5.0 | 8.0 | 0.00 | 4.44 | 1.11 | 99 | 1004.5 |
| 20260506041204 | 48 | 23 | 4.0 | 8.0 | 0.00 | 4.44 | 1.11 | 99 | 1004.4 |
| 20260506040706 | 48 | 73 | 3.0 | 8.0 | 0.00 | 4.44 | 1.11 | 99 | 1004.5 |
| 20260506040204 | 49 | 0 | 3.0 | 8.0 | 0.00 | 4.44 | 1.11 | 99 | 1004.5 |
| 20260506035705 | 49 | 13 | 6.0 | 8.0 | 0.00 | 5.55 | 1.11 | 99 | 1004.5 |
| 20260506035206 | 49 | 13 | 2.0 | 8.0 | 0.00 | 5.55 | 1.11 | 99 | 1004.5 |
| 20260506034705 | 49 | 43 | 2.0 | 8.0 | 0.00 | 5.55 | 1.11 | 99 | 1004.6 |
| 20260506034204 | 49 | 33 | 6.0 | 11.0 | 0.00 | 5.55 | 1.11 | 99 | 1004.5 |
| 20260506033705 | 49 | 45 | 4.0 | 11.0 | 0.00 | 5.55 | 1.11 | 99 | 1004.6 |
| 20260506033206 | 49 | 53 | 4.0 | 11.0 | 0.00 | 5.55 | 1.11 | 99 | 1004.5 |
| 20260506032704 | 49 | 353 | 6.0 | 8.0 | 0.00 | 5.55 | 1.11 | 99 | 1004.6 |
| 20260506032205 | 49 | 33 | 3.0 | 8.0 | 0.00 | 5.55 | 1.11 | 99 | 1004.7 |
| 20260506031206 | 49 | 43 | 8.0 | 10.0 | 0.00 | 5.55 | 1.11 | 99 | 1004.6 |
| 20260506030705 | 49 | 23 | 5.0 | 10.0 | 0.00 | 5.55 | 1.11 | 99 | 1004.7 |
| 20260506030206 | 49 | 43 | 5.0 | 10.0 | 0.00 | 5.55 | 1.11 | 99 | 1004.7 |
| 20260506025705 | 49 | 8 | 4.0 | 10.0 | 0.00 | 5.55 | 1.11 | 99 | 1004.8 |
| 20260506025204 | 50 | 23 | 9.0 | 9.0 | 0.00 | 5.55 | 1.11 | 99 | 1004.8 |
| 20260506024704 | 50 | 13 | 6.0 | 9.0 | 0.00 | 5.55 | 1.11 | 99 | 1004.9 |
| 20260506024204 | 50 | 18 | 4.0 | 13.0 | 0.00 | 5.55 | 1.11 | 99 | 1005.0 |
| 20260506023706 | 50 | 63 | 3.0 | 13.0 | 0.00 | 5.55 | 1.11 | 99 | 1005.0 |
| 20260506023204 | 50 | 38 | 4.0 | 13.0 | 0.00 | 5.55 | 1.11 | 99 | 1005.0 |
| 20260506022706 | 50 | 353 | 4.0 | 13.0 | 0.00 | 5.55 | 1.11 | 98 | 1005.0 |
| 20260506022205 | 50 | 353 | 4.0 | 13.0 | 0.00 | 5.55 | 1.11 | 98 | 1005.1 |
| 20260506021704 | 50 | 13 | 7.0 | 13.0 | 0.00 | 5.55 | 1.11 | 98 | 1005.1 |
| 20260506021205 | 50 | 38 | 2.0 | 13.0 | 0.00 | 5.55 | 1.11 | 98 | 1005.1 |
| 20260506020204 | 50 | 45 | 7.0 | 11.0 | 0.00 | 5.55 | 1.11 | 98 | 1005.2 |
| 20260506015704 | 50 | 18 | 6.0 | 11.0 | 0.00 | 5.55 | 1.11 | 98 | 1005.2 |
| 20260506015204 | 50 | 33 | 4.0 | 11.0 | 0.00 | 5.55 | 1.11 | 98 | 1005.3 |
| 20260506014706 | 50 | 353 | 3.0 | 11.0 | 0.00 | 5.55 | 1.11 | 98 | 1005.3 |
| 20260506014205 | 50 | 53 | 4.0 | 11.0 | 0.00 | 5.55 | 1.11 | 98 | 1005.3 |
| 20260506013704 | 50 | 65 | 4.0 | 10.0 | 0.00 | 5.55 | 1.11 | 98 | 1005.3 |
| 20260506012207 | 51 | 38 | 6.0 | 10.0 | 0.00 | 5.55 | 1.11 | 98 | 1005.3 |
| 20260506011704 | 51 | 43 | 5.0 | 9.0 | 0.00 | 5.55 | 1.11 | 98 | 1005.3 |
| 20260506011204 | 51 | 18 | 4.0 | 11.0 | 0.00 | 5.55 | 1.11 | 98 | 1005.3 |
| 20260506010706 | 51 | 8 | 4.0 | 11.0 | 0.00 | 5.55 | 1.11 | 98 | 1005.4 |
| 20260506010205 | 51 | 23 | 6.0 | 11.0 | 0.00 | 5.55 | 1.11 | 98 | 1005.4 |
| 20260506004704 | 51 | 85 | 2.0 | 11.0 | 1.11 | 5.55 | 1.11 | 98 | 1005.4 |
| 20260506003704 | 51 | 53 | 10.0 | 10.0 | 1.11 | 5.55 | 1.11 | 98 | 1005.6 |
| 20260506003204 | 51 | 13 | 6.0 | 10.0 | 1.11 | 5.55 | 1.11 | 98 | 1005.5 |
| 20260506002705 | 51 | 38 | 6.0 | 10.0 | 1.11 | 5.55 | 1.11 | 98 | 1005.6 |
| 20260506002205 | 51 | 33 | 6.0 | 9.0 | 1.11 | 5.55 | 1.11 | 98 | 1005.6 |
| 20260506001704 | 51 | 65 | 2.0 | 9.0 | 1.11 | 5.55 | 1.11 | 98 | 1005.7 |
| 20260506001204 | 51 | 45 | 4.0 | 11.0 | 1.11 | 5.55 | 1.11 | 98 | 1005.7 |
| 20260506000706 | 51 | 45 | 6.0 | 11.0 | 1.11 | 5.55 | 1.11 | 98 | 1005.7 |
| 20260506000205 | 51 | 65 | 2.0 | 11.0 | 1.11 | 5.55 | 1.11 | 98 | 1005.8 |
| 20260505235704 | 51 | 45 | 5.0 | 11.0 | 1.11 | 5.55 | 1.11 | 98 | 1005.8 |
| 20260505235206 | 51 | 8 | 6.0 | 11.0 | 0.00 | 4.44 | 0.00 | 98 | 1005.8 |
| 20260505234704 | 51 | 38 | 4.0 | 9.0 | 0.00 | 4.44 | 0.00 | 98 | 1005.9 |
| 20260505234205 | 51 | 0 | 5.0 | 13.0 | 0.00 | 4.44 | 0.00 | 98 | 1006.0 |
| 20260505233706 | 51 | 78 | 4.0 | 13.0 | 0.00 | 4.44 | 0.00 | 98 | 1006.0 |
| 20260505233205 | 51 | 358 | 3.0 | 13.0 | 0.00 | 4.44 | 0.00 | 98 | 1006.1 |
| 20260505232704 | 51 | 13 | 7.0 | 13.0 | 0.00 | 4.44 | 0.00 | 98 | 1006.1 |
| 20260505232204 | 51 | 25 | 5.0 | 13.0 | 0.00 | 4.44 | 0.00 | 98 | 1006.2 |
| 20260505231706 | 51 | 38 | 4.0 | 12.0 | 0.00 | 4.44 | 0.00 | 98 | 1006.2 |
| 20260505231206 | 51 | 38 | 8.0 | 11.0 | 0.00 | 4.44 | 0.00 | 97 | 1006.1 |
| 20260505230704 | 51 | 55 | 5.0 | 11.0 | 0.00 | 4.44 | 0.00 | 97 | 1006.3 |
| 20260505225205 | 51 | 63 | 4.0 | 9.0 | 0.00 | 4.44 | 0.00 | 97 | 1006.3 |
| 20260505224705 | 52 | 23 | 8.0 | 9.0 | 1.11 | 4.44 | 0.00 | 97 | 1006.3 |
| 20260505224206 | 52 | 25 | 4.0 | 12.0 | 1.11 | 4.44 | 0.00 | 97 | 1006.4 |
| 20260505223704 | 52 | 25 | 8.0 | 12.0 | 1.11 | 4.44 | 0.00 | 97 | 1006.3 |
| 20260505223204 | 52 | 265 | 1.0 | 12.0 | 1.11 | 4.44 | 0.00 | 97 | 1006.3 |
| 20260505222706 | 52 | 38 | 6.0 | 12.0 | 1.11 | 4.44 | 0.00 | 97 | 1006.3 |
| 20260505222205 | 52 | 73 | 5.0 | 12.0 | 1.11 | 4.44 | 0.00 | 97 | 1006.3 |
| 20260505221705 | 52 | 53 | 2.0 | 12.0 | 1.11 | 4.44 | 0.00 | 97 | 1006.4 |
| 20260505221206 | 52 | 45 | 8.0 | 12.0 | 1.11 | 4.44 | 0.00 | 97 | 1006.5 |
| 20260505220705 | 52 | 43 | 8.0 | 11.0 | 1.11 | 4.44 | 0.00 | 96 | 1006.5 |
| 20260505220204 | 52 | 38 | 4.0 | 11.0 | 1.11 | 4.44 | 4.44 | 96 | 1006.6 |
| 20260505215706 | 52 | 23 | 6.0 | 11.0 | 1.11 | 4.44 | 4.44 | 96 | 1006.5 |
| 20260505215204 | 52 | 23 | 8.0 | 11.0 | 1.11 | 4.44 | 4.44 | 96 | 1006.5 |
| 20260505214704 | 52 | 0 | 6.0 | 9.0 | 0.00 | 3.33 | 3.33 | 96 | 1006.5 |
| 20260505214205 | 52 | 38 | 5.0 | 11.0 | 0.00 | 3.33 | 3.33 | 96 | 1006.7 |
| 20260505213205 | 52 | 335 | 4.0 | 11.0 | 0.00 | 3.33 | 3.33 | 95 | 1006.8 |
| 20260505212706 | 52 | 38 | 6.0 | 11.0 | 0.00 | 3.33 | 3.33 | 95 | 1006.8 |
| 20260505212206 | 52 | 43 | 6.0 | 11.0 | 0.00 | 3.33 | 3.33 | 95 | 1006.8 |
| 20260505211704 | 52 | 25 | 6.0 | 9.0 | 0.00 | 3.33 | 3.33 | 95 | 1006.8 |
| 20260505211204 | 52 | 25 | 2.0 | 13.0 | 0.00 | 3.33 | 3.33 | 95 | 1006.8 |
| 20260505210705 | 52 | 45 | 3.0 | 13.0 | 0.00 | 3.33 | 3.33 | 95 | 1006.7 |
| 20260505210204 | 52 | 0 | 3.0 | 13.0 | 0.00 | 3.33 | 3.33 | 95 | 1006.9 |
| 20260505205704 | 52 | 38 | 7.0 | 13.0 | 0.00 | 3.33 | 3.33 | 95 | 1006.8 |
| 20260505205206 | 52 | 333 | 3.0 | 13.0 | 0.00 | 3.33 | 3.33 | 95 | 1006.9 |
| 20260505204704 | 53 | 38 | 6.0 | 13.0 | 0.00 | 3.33 | 3.33 | 95 | 1007.0 |
| 20260505204204 | 53 | 18 | 6.0 | 15.0 | 0.00 | 3.33 | 3.33 | 95 | 1007.0 |
| 20260505203706 | 53 | 55 | 9.0 | 15.0 | 0.00 | 4.44 | 3.33 | 95 | 1007.0 |
| 20260505203204 | 53 | 63 | 7.0 | 15.0 | 0.00 | 4.44 | 3.33 | 95 | 1006.9 |
| 20260505202705 | 53 | 38 | 8.0 | 15.0 | 0.00 | 4.44 | 3.33 | 95 | 1007.0 |
| 20260505202206 | 53 | 18 | 8.0 | 15.0 | 0.00 | 4.44 | 3.33 | 95 | 1006.9 |
| 20260505201704 | 53 | 85 | 4.0 | 15.0 | 0.00 | 4.44 | 3.33 | 94 | 1006.9 |
| 20260505201204 | 53 | 25 | 8.0 | 15.0 | 0.00 | 4.44 | 3.33 | 94 | 1006.9 |
| 20260505200704 | 53 | 45 | 3.0 | 13.0 | 0.00 | 4.44 | 3.33 | 94 | 1006.9 |
| 20260505195204 | 53 | 43 | 7.0 | 13.0 | 0.00 | 4.44 | 3.33 | 95 | 1006.9 |
| 20260505194206 | 53 | 55 | 2.0 | 13.0 | 0.00 | 4.44 | 3.33 | 95 | 1007.0 |
| 20260505193706 | 53 | 33 | 10.0 | 13.0 | 0.00 | 4.44 | 3.33 | 95 | 1006.9 |
| 20260505193204 | 53 | 335 | 5.0 | 13.0 | 0.00 | 4.44 | 3.33 | 95 | 1007.1 |
| 20260505192706 | 53 | 38 | 6.0 | 13.0 | 0.00 | 4.44 | 3.33 | 94 | 1007.1 |
| 20260505192204 | 53 | 13 | 6.0 | 13.0 | 0.00 | 4.45 | 3.33 | 94 | 1006.9 |
| 20260505191705 | 53 | 25 | 7.0 | 13.0 | 0.00 | 4.47 | 3.33 | 94 | 1006.9 |
| 20260505191209 | 53 | 45 | 10.0 | 11.0 | 0.00 | 4.48 | 3.33 | 94 | 1007.0 |
| 20260505190704 | 53 | 0 | 5.0 | 11.0 | 0.00 | 4.48 | 3.33 | 94 | 1006.9 |
| 20260505190205 | 53 | 343 | 2.0 | 11.0 | 0.00 | 4.48 | 3.33 | 94 | 1006.9 |
| 20260505185204 | 53 | 0 | 6.0 | 11.0 | 0.00 | 4.48 | 3.33 | 93 | 1006.9 |
| 20260505184705 | 54 | 8 | 4.0 | 11.0 | 0.00 | 4.48 | 3.33 | 93 | 1006.9 |
| 20260505184206 | 54 | 0 | 6.0 | 12.0 | 0.00 | 4.48 | 3.33 | 93 | 1007.0 |
| 20260505183704 | 54 | 43 | 11.0 | 12.0 | 0.00 | 4.48 | 3.33 | 93 | 1007.0 |
| 20260505183204 | 54 | 273 | 2.0 | 12.0 | 0.00 | 4.48 | 3.33 | 93 | 1007.1 |
| 20260505182204 | 54 | 115 | 6.0 | 12.0 | 1.11 | 5.55 | 3.33 | 93 | 1007.1 |
| 20260505181206 | 54 | 23 | 8.0 | 14.0 | 1.11 | 5.55 | 3.33 | 92 | 1007.1 |
| 20260505180705 | 54 | 18 | 6.0 | 14.0 | 1.11 | 5.55 | 3.33 | 92 | 1007.0 |
| 20260505180204 | 54 | 45 | 6.0 | 14.0 | 1.11 | 5.55 | 3.33 | 92 | 1007.0 |
| 20260505175704 | 54 | 18 | 4.0 | 14.0 | 1.11 | 5.55 | 3.33 | 92 | 1007.0 |
| 20260505175207 | 54 | 358 | 4.0 | 14.0 | 1.11 | 5.55 | 3.33 | 92 | 1006.9 |
| 20260505174705 | 55 | 38 | 4.0 | 14.0 | 1.11 | 5.55 | 3.33 | 92 | 1006.9 |
| 20260505172704 | 55 | 33 | 4.0 | 12.0 | 0.00 | 4.44 | 2.22 | 91 | 1007.1 |
| 20260505172205 | 55 | 45 | 3.0 | 12.0 | 0.00 | 4.44 | 2.22 | 91 | 1007.1 |
| 20260505171705 | 55 | 13 | 6.0 | 12.0 | 0.00 | 4.44 | 2.22 | 91 | 1007.1 |
| 20260505171204 | 55 | 25 | 9.0 | 12.0 | 0.00 | 4.44 | 2.22 | 91 | 1007.1 |
| 20260505170705 | 55 | 33 | 3.0 | 12.0 | 0.00 | 4.44 | 2.22 | 90 | 1007.2 |
| 20260505170204 | 55 | 95 | 4.0 | 12.0 | 0.00 | 4.44 | 2.22 | 90 | 1007.3 |
| 20260505165704 | 56 | 25 | 4.0 | 10.0 | 0.00 | 4.44 | 2.22 | 91 | 1007.3 |
| 20260505165205 | 56 | 43 | 5.0 | 10.0 | 0.00 | 4.44 | 2.22 | 90 | 1007.4 |
| 20260505164705 | 56 | 43 | 5.0 | 10.0 | 0.00 | 4.44 | 2.22 | 90 | 1007.4 |
| 20260505164205 | 56 | 43 | 3.0 | 10.0 | 0.00 | 4.44 | 2.22 | 90 | 1007.3 |
| 20260505163705 | 56 | 25 | 5.0 | 10.0 | 0.00 | 4.44 | 2.22 | 90 | 1007.3 |
| 20260505163206 | 56 | 18 | 5.0 | 10.0 | 0.00 | 4.44 | 2.22 | 90 | 1007.3 |
| 20260505162206 | 56 | 55 | 9.0 | 10.0 | 0.00 | 4.44 | 2.22 | 90 | 1007.3 |
| 20260505161206 | 56 | 33 | 5.0 | 12.0 | 0.00 | 4.44 | 2.22 | 89 | 1007.4 |
| 20260505160706 | 56 | 63 | 4.0 | 12.0 | 0.00 | 4.44 | 2.22 | 89 | 1007.3 |
| 20260505160205 | 57 | 65 | 5.0 | 12.0 | 0.00 | 4.44 | 2.22 | 89 | 1007.3 |
| 20260505153206 | 57 | 63 | 3.0 | 10.0 | 0.00 | 4.44 | 2.22 | 89 | 1007.4 |
| 20260505152704 | 57 | 23 | 5.0 | 9.0 | 0.00 | 4.44 | 2.22 | 90 | 1007.5 |
| 20260505152205 | 57 | 33 | 6.0 | 9.0 | 0.00 | 4.44 | 2.22 | 89 | 1007.5 |
| 20260505151707 | 57 | 0 | 6.0 | 9.0 | 0.00 | 4.44 | 2.22 | 89 | 1007.5 |
| 20260505151204 | 57 | 13 | 4.0 | 11.0 | 0.00 | 4.44 | 2.22 | 89 | 1007.6 |
| 20260505150704 | 57 | 55 | 5.0 | 11.0 | 0.00 | 4.44 | 2.22 | 89 | 1007.7 |
| 20260505150206 | 57 | 0 | 4.0 | 11.0 | 0.00 | 4.44 | 2.22 | 89 | 1007.6 |
| 20260505140204 | 58 | 45 | 4.0 | 13.0 | 0.00 | 5.52 | 2.22 | 89 | 1007.9 |